[[{"header":{"parameterUnit":"m.s-1","parameterCategory":1,"la1":30.2991,"la2":30.254,"lo1":-89.0895,"lo2":-89.0444,"dy":0.0017,"dx":0.0017,"nx":28,"ny":28,"refTime":"2025-04-02T03:00:00:Z","depth":0,"parameterNumber":2,"parameterNumberName":"U-component_of_WINDS"},"data":[0,0,0,0,0,0,0,0,0,0,0,0,0,0,0,0,0,0,0,0,0,0,0,0,0,0,0,0,0,0,0,0,0,0,0,0,0,0,0,0,0,0,0,0,0,0,0,0,0,0,0,0,0,0,0,0,0,0,-4.2516,-4.2517,0,-4.2621,-4.2622,-4.2623,-4.2635,-4.2634,-4.2633,-4.2632,-4.2738,-4.2742,-4.2746,0,0,0,0,0,0,0,0,0,0,0,0,0,-4.2325,-4.2328,-4.2516,-4.2517,-4.2518,-4.2621,-4.2622,-4.2623,-4.2635,-4.2634,-4.2633,-4.2632,-4.2737,-4.2741,-4.2746,0,0,0,0,0,0,0,0,0,0,0,0,0,-4.2417,-4.233,-4.2516,-4.2537,-4.254,-4.262,-4.2622,-4.2624,-4.2636,-4.2634,-4.2633,-4.2631,-4.2736,-4.2741,-4.2747,-4.2813,0,0,-4.2764,-4.2766,0,0,0,0,0,0,0,0,-4.2411,-4.2424,-4.2532,-4.2535,-4.2539,-4.2613,-4.2594,-4.2687,-4.2636,-4.2599,-4.2632,-4.263,-4.2698,-4.2707,-4.273,-4.2818,-4.2822,-4.2765,-4.2768,-4.277,-4.2772,0,0,0,0,0,0,0,-4.2405,-4.2419,-4.2557,-4.2534,-4.2538,-4.2541,-4.2552,-4.2611,-4.2656,-4.2602,-4.2603,-4.2616,-4.2699,-4.2724,-4.2732,-4.2824,-4.2764,-4.2769,-4.2773,-4.2775,-4.2971,-4.2973,0,0,0,0,0,0,-4.2395,-4.2414,-4.2554,-4.256,-4.247,-4.2545,-4.2558,-4.2591,-4.2655,-4.2664,-4.2617,-4.2616,-4.2715,-4.2726,-4.2736,-4.2817,-4.277,-4.2776,-4.2779,-4.2969,-4.2972,-4.2974,0,0,0,0,0,0,-4.2391,-4.2407,-4.255,-4.2488,-4.2506,-4.255,-4.2587,-4.2594,-4.2619,-4.2666,-4.2674,-4.2634,-4.2714,-4.2728,-4.2794,-4.2821,-4.2778,-4.2783,-4.2967,-4.297,-4.2973,-4.2979,0,0,0,0,0,0,-4.2385,-4.2406,-4.2431,-4.2488,-4.2509,-4.2606,-4.2589,-4.2597,-4.2629,-4.2628,-4.2685,-4.2692,-4.2714,-4.2785,-4.2799,-4.2828,-4.2788,-4.2965,-4.2969,-4.2972,-4.2977,-4.2982,-4.2986,0,0,0,0,0,-4.2378,-4.2429,-4.2433,-4.245,-4.2542,-4.2607,-4.2619,-4.2644,-4.2631,-4.2657,-4.2688,-4.2691,-4.2816,-4.2792,-4.2808,-4.2838,-4.2963,-4.2968,-4.2971,-4.2975,-4.2981,-4.2986,0,0,0,0,0,0,-4.2374,-4.2437,-4.2441,-4.2512,-4.2554,-4.2609,-4.2643,-4.265,-4.2696,-4.2694,-4.2722,-4.2734,-4.2798,-4.2825,-4.2797,-4.2906,-4.2888,-4.2896,-4.2885,-4.2891,-4.2896,-4.2887,-4.2793,0,0,0,0,0,-4.2381,-4.2429,-4.2482,-4.2539,-4.256,-4.2598,-4.2627,-4.2642,-4.2687,-4.2705,-4.274,-4.2783,-4.2832,-4.2864,-4.2912,-4.2982,-4.2993,-4.3011,-4.3015,-4.3019,-4.3024,-4.3062,-4.307,-4.2987,-4.2987,-4.2987,0,0,-4.2396,-4.2437,-4.2465,-4.2539,-4.2573,-4.2622,-4.2612,-4.2664,-4.27,-4.2712,-4.2776,-4.2804,-4.2854,-4.2922,-4.2953,-4.2946,-4.305,-4.3024,-4.3026,-4.303,-4.3067,-4.3075,-4.3082,-4.299,-4.2989,-4.2989,0,0,-4.2449,-4.2485,-4.2536,-4.2571,-4.2623,-4.2648,-4.2661,-4.2715,-4.2734,-4.2799,-4.2809,-4.2852,-4.2936,-4.2971,-4.3,-4.3066,-4.307,-4.3081,-4.3105,-4.3142,-4.3148,-4.3154,-4.3176,-4.3184,-4.3087,-4.3087,-4.3087,0,-4.2461,-4.2534,-4.2561,-4.2612,-4.2644,-4.2658,-4.271,-4.2742,-4.2808,-4.2829,-4.282,-4.2926,-4.2961,-4.3036,-4.3053,-4.3076,-4.309,-4.3074,-4.3145,-4.3151,-4.3157,-4.3179,-4.3187,-4.3088,-4.3088,-4.3088,-4.3088,0,-4.2546,-4.2597,-4.2632,-4.2695,-4.2731,-4.2782,-4.2816,-4.2849,-4.2862,-4.2888,-4.2953,-4.2996,-4.3052,-4.3072,-4.3084,-4.3149,-4.3143,-4.314,-4.3122,-4.3165,-4.3186,-4.3195,-4.3089,-4.3089,-4.3088,-4.3088,0,0,-4.2596,-4.2674,-4.2686,-4.2715,-4.2774,-4.2814,-4.2866,-4.2922,-4.2949,-4.2994,-4.3037,-4.3109,-4.3106,-4.3139,-4.3156,-4.3188,-4.3237,-4.3181,-4.3183,-4.3188,-4.3309,-4.331,-4.3319,-4.3241,-4.3243,-4.3244,-4.3304,0,-4.2654,-4.2747,-4.2772,-4.2851,-4.2897,-4.2912,-4.2957,-4.2999,-4.3025,-4.3068,-4.3097,-4.3146,-4.314,-4.3159,-4.3193,-4.3224,-4.3261,-4.322,-4.328,-4.3282,-4.3265,-4.333,-4.3331,-4.3386,-4.3313,-4.3314,-4.3315,0,-4.2733,-4.278,-4.2862,-4.2916,-4.2936,-4.2976,-4.3029,-4.3071,-4.3118,-4.3135,-4.3172,-4.3186,-4.324,-4.3222,-4.3297,-4.3268,-4.3295,-4.3314,-4.3317,-4.3321,-4.33,-4.3334,-4.3404,-4.3411,-4.3329,-4.3327,-4.3327,0,-4.2759,-4.2843,-4.2903,-4.2927,-4.2992,-4.3019,-4.3047,-4.3093,-4.3125,-4.3171,-4.3192,-4.3244,-4.3272,-4.3312,-4.334,-4.3324,-4.3412,-4.3396,-4.3426,-4.3425,-4.3442,-4.344,-4.3514,-4.3462,-4.3462,-4.3462,-4.3462,0,-4.2819,-4.2869,-4.2916,-4.2952,-4.3008,-4.3038,-4.3093,-4.3121,-4.3162,-4.3204,-4.3221,-4.326,-4.3296,-4.334,-4.3362,-4.342,-4.3433,-4.3447,-4.3452,-4.3444,-4.3442,-4.346,-4.3457,-4.3464,-4.3464,-4.3463,-4.3463,0,-4.2857,-4.2891,-4.2957,-4.3013,-4.3028,-4.3066,-4.3114,-4.315,-4.3177,-4.323,-4.3245,-4.3287,-4.334,-4.3372,-4.3439,-4.3454,-4.3517,-4.3522,-4.3501,-4.3503,-4.353,-4.3526,-4.3617,-4.363,-4.3571,-4.3571,-4.3572,0,-4.2892,-4.2931,-4.2991,-4.302,-4.3049,-4.3096,-4.3129,-4.316,-4.3193,-4.325,-4.3279,-4.3333,-4.3377,-4.3461,-4.3497,-4.3548,-4.3553,-4.3582,-4.3561,-4.3552,-4.3551,-4.3548,-4.3551,-4.3584,-4.3584,-4.3585,-4.3585,0,-4.2951,-4.2966,-4.3012,-4.3064,-4.3102,-4.3145,-4.3187,-4.3211,-4.3249,-4.3285,-4.3339,-4.3374,-4.3442,-4.3495,-4.355,-4.3578,-4.3588,-4.3592,-4.3601,-4.3593,-4.3578,-4.3585,-4.3508,-4.3589,-4.3589,-4.3588,-4.3588,-4.3588,-4.2988,-4.3022,-4.3069,-4.312,-4.3156,-4.3195,-4.3231,-4.3263,-4.3309,-4.3367,-4.3383,-4.3439,-4.3485,-4.356,-4.359,-4.3634,-4.363,-4.3644,-4.3647,-4.3649,-4.3649,-4.3573,-4.3644,-4.3644,-4.3644,-4.3644,-4.3644,0,-4.3045,-4.3077,-4.3123,-4.3182,-4.3222,-4.3229,-4.3276,-4.3309,-4.3358,-4.3401,-4.3444,-4.3506,-4.3558,-4.3599,-4.3652,-4.368,-4.3685,-4.3692,-4.3689,-4.3696,-4.365,-4.3636,-4.3687,-4.3687,-4.3687,-4.3687,-4.3687,-4.3687,-4.308,-4.3138,-4.3159,-4.3235,-4.3266,-4.3321,-4.3348,-4.3384,-4.3418,-4.3486,-4.3529,-4.3556,-4.3598,-4.3654,-4.3701,-4.3712,-4.373,-4.3736,-4.3747,-4.3704,-4.3699,-4.3694,-4.3681,-4.374,-4.374,-4.3789,-4.3789,-4.3789]},{"header":{"parameterUnit":"m.s-1","parameterCategory":1,"la1":30.2991,"la2":30.254,"lo1":-89.0895,"lo2":-89.0444,"dy":0.0017,"dx":0.0017,"nx":28,"ny":28,"refTime":"2025-04-02T03:00:00:Z","depth":0,"parameterNumber":3,"parameterNumberName":"V-component_of_WINDS"},"data":[0,0,0,0,0,0,0,0,0,0,0,0,0,0,0,0,0,0,0,0,0,0,0,0,0,0,0,0,0,0,0,0,0,0,0,0,0,0,0,0,0,0,0,0,0,0,0,0,0,0,0,0,0,0,0,0,0,0,5.0955,5.0956,0,5.1056,5.1057,5.1058,5.1069,5.1068,5.1067,5.1066,5.1169,5.1173,5.1176,0,0,0,0,0,0,0,0,0,0,0,0,0,5.0771,5.0774,5.0955,5.0956,5.0957,5.1056,5.1057,5.1059,5.1069,5.1068,5.1067,5.1066,5.1168,5.1172,5.1177,0,0,0,0,0,0,0,0,0,0,0,0,0,5.0859,5.0776,5.0954,5.0974,5.0977,5.1056,5.1057,5.1059,5.107,5.1068,5.1067,5.1065,5.1166,5.1172,5.1177,5.1242,0,0,5.1194,5.1197,0,0,0,0,0,0,0,0,5.0854,5.0866,5.097,5.0973,5.0976,5.1048,5.103,5.112,5.107,5.1035,5.1066,5.1064,5.113,5.1139,5.1161,5.1247,5.1251,5.1195,5.1198,5.12,5.1202,0,0,0,0,0,0,0,5.0848,5.0862,5.0995,5.0972,5.0976,5.0979,5.099,5.1047,5.109,5.1038,5.1039,5.105,5.1131,5.1156,5.1163,5.1253,5.1194,5.1199,5.1203,5.1205,5.14,5.1402,0,0,0,0,0,0,5.0838,5.0857,5.0991,5.0998,5.091,5.0983,5.0995,5.1027,5.1089,5.1097,5.1052,5.1051,5.1147,5.1157,5.1167,5.1249,5.12,5.1206,5.1209,5.1398,5.1401,5.1403,0,0,0,0,0,0,5.0834,5.085,5.0987,5.0928,5.0945,5.0988,5.1023,5.103,5.1054,5.11,5.1107,5.1068,5.1146,5.1159,5.1224,5.1253,5.1208,5.1213,5.1396,5.1399,5.1402,5.1413,0,0,0,0,0,0,5.0829,5.0849,5.0874,5.0928,5.0948,5.1043,5.1025,5.1033,5.1063,5.1063,5.1118,5.1125,5.1146,5.1216,5.123,5.126,5.1217,5.1394,5.1397,5.1401,5.141,5.1416,5.1421,0,0,0,0,0,5.0823,5.0872,5.0875,5.0891,5.098,5.1044,5.1056,5.1079,5.1066,5.1091,5.1121,5.1123,5.1247,5.1222,5.1238,5.127,5.1392,5.1396,5.1401,5.1408,5.1415,5.1421,0,0,0,0,0,0,5.0819,5.0879,5.0883,5.0952,5.0993,5.1046,5.1079,5.1085,5.113,5.1128,5.1155,5.1167,5.1231,5.1257,5.1228,5.1338,5.1318,5.1326,5.1319,5.1326,5.1331,5.1324,5.1222,0,0,0,0,0,5.0826,5.0873,5.0923,5.0979,5.0999,5.1036,5.1064,5.1079,5.1122,5.114,5.1174,5.1216,5.1265,5.1296,5.1344,5.1414,5.1427,5.1444,5.1449,5.1453,5.146,5.1501,5.151,5.1416,5.1416,5.1416,0,0,5.0842,5.088,5.0908,5.0979,5.1013,5.1061,5.105,5.1101,5.1138,5.1147,5.1212,5.1238,5.1287,5.1356,5.1388,5.1379,5.1488,5.1458,5.1461,5.1466,5.1506,5.1515,5.1523,5.1419,5.1419,5.1418,0,0,5.0895,5.0928,5.0979,5.1014,5.1065,5.1089,5.1102,5.1154,5.1173,5.1238,5.1247,5.129,5.1373,5.1409,5.1437,5.1506,5.1511,5.1521,5.1548,5.1588,5.1596,5.1602,5.1629,5.1638,5.1527,5.1527,5.1527,0,5.0907,5.0981,5.1005,5.1057,5.1089,5.11,5.1153,5.1185,5.1249,5.1271,5.1261,5.1367,5.14,5.1478,5.1495,5.1517,5.1533,5.1515,5.1593,5.16,5.1606,5.1632,5.1642,5.1528,5.1528,5.1528,5.1527,0,5.0995,5.1046,5.1081,5.1144,5.118,5.1232,5.1264,5.1298,5.1309,5.1335,5.1402,5.1443,5.1499,5.1519,5.153,5.1599,5.1593,5.1587,5.1569,5.1616,5.1641,5.1651,5.1529,5.1529,5.1529,5.1528,0,0,5.1049,5.1126,5.1138,5.1168,5.1227,5.1267,5.132,5.1376,5.1405,5.1449,5.1495,5.1566,5.1562,5.1595,5.161,5.1645,5.17,5.1636,5.1637,5.1648,5.1782,5.1787,5.1798,5.1703,5.1705,5.1706,5.1778,0,5.1111,5.1206,5.123,5.1312,5.136,5.1373,5.1419,5.1461,5.1486,5.1531,5.1559,5.161,5.1599,5.162,5.1655,5.1686,5.1728,5.1681,5.1748,5.175,5.1737,5.1811,5.1816,5.1882,5.1788,5.179,5.1791,0,5.1195,5.1243,5.1329,5.1384,5.1405,5.1446,5.1502,5.1544,5.1592,5.1608,5.1645,5.1658,5.1715,5.1692,5.1772,5.174,5.1769,5.1788,5.1791,5.18,5.1774,5.1823,5.1903,5.1914,5.1806,5.1805,5.1804,0,5.1229,5.1314,5.1378,5.1402,5.1466,5.1496,5.1524,5.157,5.1603,5.1651,5.1673,5.1726,5.1756,5.1797,5.1824,5.1805,5.1903,5.1882,5.1919,5.1918,5.194,5.1939,5.2028,5.1955,5.1955,5.1955,5.1955,0,5.1296,5.1349,5.1394,5.1433,5.1494,5.1521,5.158,5.1608,5.165,5.1696,5.1709,5.1751,5.1784,5.1831,5.1852,5.1916,5.1929,5.1945,5.195,5.1945,5.1943,5.1965,5.1962,5.1958,5.1957,5.1956,5.1956,0,5.1344,5.1376,5.1447,5.1502,5.1517,5.156,5.1608,5.1647,5.1673,5.1731,5.1746,5.1787,5.1844,5.1875,5.1945,5.196,5.2032,5.2034,5.2017,5.2019,5.2055,5.2052,5.2164,5.2181,5.2094,5.2095,5.2096,0,5.1386,5.1428,5.1488,5.152,5.1549,5.16,5.1634,5.1663,5.1698,5.1757,5.1789,5.1847,5.1895,5.1985,5.2021,5.2076,5.208,5.2116,5.2089,5.2083,5.2084,5.2082,5.2087,5.2121,5.2121,5.2122,5.2123,0,5.1458,5.1472,5.1521,5.1577,5.1618,5.1662,5.1707,5.1732,5.1768,5.1807,5.1866,5.1903,5.1976,5.2034,5.2092,5.2121,5.2129,5.2131,5.2143,5.2138,5.2128,5.2136,5.2032,5.2128,5.2128,5.2127,5.2127,5.2127,5.1506,5.1544,5.1594,5.1649,5.1685,5.1727,5.1767,5.1799,5.1849,5.1911,5.1924,5.1987,5.2035,5.2114,5.2145,5.2195,5.2188,5.2204,5.2209,5.2213,5.2216,5.2118,5.2205,5.2205,5.2205,5.2205,5.2205,0,5.1581,5.1613,5.1663,5.1726,5.177,5.1773,5.1823,5.1859,5.1914,5.1959,5.2006,5.2074,5.2131,5.2172,5.223,5.2262,5.2267,5.2276,5.2275,5.2282,5.2218,5.2203,5.2271,5.2271,5.2271,5.2271,5.2271,5.2271,5.1625,5.1691,5.1711,5.1796,5.1828,5.189,5.1919,5.1958,5.1994,5.207,5.2117,5.2144,5.2188,5.2249,5.2302,5.2312,5.2334,5.2343,5.2355,5.2294,5.2287,5.228,5.2266,5.2347,5.2347,5.2416,5.2416,5.2417]}]]